CW8306 Weather Reports


Display with metric or nautical units.
time (UTC)temp
F
wind
direction
speed
MPH
gust
MPH
rain 1hr
in
rain 24hr
in
rain mn
in
humidity
%
barometer
mb
20260903081648 61 195 0.0 2.0 0.00 0.00 0.00 89 1013.9
20260903081144 61 206 0.0 0.0 0.00 0.00 0.00 89 1014.1
20260903080640 61 202 0.0 0.0 0.00 0.00 0.00 88 1013.9
20260903080137 61 213 0.0 1.0 0.00 0.00 0.00 88 1014.2
20260903075631 62 183 0.0 0.0 0.00 0.00 0.00 88 1014.2
20260903075126 62 219 0.0 0.0 0.00 0.00 0.00 88 1014.4
20260903074625 62 214 0.0 0.0 0.00 0.00 0.00 88 1014.3
20260903074120 62 212 0.0 0.0 0.00 0.00 0.00 88 1014.4
20260903073616 62 208 0.0 2.0 0.00 0.00 0.00 88 1014.2
20260903073111 62 199 0.0 0.0 0.00 0.00 0.00 88 1014.1
20260903072606 62 204 0.0 1.0 0.00 0.00 0.00 88 1014.1
20260903072057 62 208 0.0 0.0 0.00 0.00 0.00 88 1014.3
20260903071553 62 208 0.0 0.0 0.00 0.00 0.00 88 1014.5
20260903071048 62 197 0.0 1.0 0.00 0.00 0.00 87 1014.1
20260903070548 62 202 0.0 0.0 0.00 0.00 0.00 87 1014.5
20260903070044 62 215 2.0 2.0 0.00 0.00 0.00 87 1014.2
20260903065543 63 209 0.0 0.0 0.00 0.00 0.00 87 1014.6
20260903065042 63 190 1.0 1.0 0.00 0.00 0.00 87 1014.4
20260903064537 63 200 0.0 0.0 0.00 0.00 0.00 87 1014.3
20260903064032 63 178 1.0 3.0 0.00 0.00 0.00 87 1014.4
20260903063527 63 204 0.0 2.0 0.00 0.00 0.00 86 1014.3
20260903063023 63 179 0.0 2.0 0.00 0.00 0.00 86 1014.4
20260903062518 64 188 0.0 0.0 0.00 0.00 0.00 86 1014.2
20260903062014 64 212 0.0 0.0 0.00 0.00 0.00 85 1014.4
20260903061509 64 202 0.0 0.0 0.00 0.00 0.00 85 1014.5
20260903061003 64 194 0.0 1.0 0.00 0.00 0.00 85 1014.7
20260903060458 64 208 0.0 1.0 0.00 0.00 0.00 84 1014.4
20260903055957 64 216 0.0 1.0 0.00 0.00 0.00 84 1014.7
20260903055454 64 195 1.0 1.0 0.00 0.00 0.00 84 1014.4
20260903054949 65 194 0.0 1.0 0.00 0.00 0.00 84 1014.4
20260903054449 65 209 0.0 0.0 0.00 0.00 0.00 84 1014.5
20260903053945 65 208 0.0 0.0 0.00 0.00 0.00 84 1014.7
20260903053445 65 212 0.0 1.0 0.00 0.00 0.00 83 1014.8
20260903052942 65 213 0.0 1.0 0.00 0.00 0.00 83 1014.6
20260903052437 65 198 1.0 2.0 0.00 0.00 0.00 83 1014.7
20260903051933 65 198 0.0 2.0 0.00 0.00 0.00 84 1014.6
20260903051428 65 202 0.0 2.0 0.00 0.00 0.00 84 1014.5
20260903050924 65 197 0.0 2.0 0.00 0.00 0.00 84 1014.5
20260903050422 65 187 0.0 0.0 0.00 0.00 0.00 83 1014.7
20260903045917 66 206 0.0 0.0 0.00 0.00 0.00 83 1014.7
20260903045412 66 181 0.0 2.0 0.00 0.00 0.00 83 1014.5
20260903044909 66 202 0.0 1.0 0.00 0.00 0.00 83 1014.5
20260903044409 66 208 0.0 0.0 0.00 0.00 0.00 83 1014.6
20260903043906 66 207 0.0 0.0 0.00 0.00 0.00 83 1014.7
20260903043401 66 211 0.0 1.0 0.00 0.00 0.00 83 1014.6
20260903042859 66 292 0.0 1.0 0.00 0.00 0.00 83 1014.7
20260903042354 66 212 0.0 0.0 0.00 0.00 0.00 83 1014.7
20260903041850 66 213 0.0 1.0 0.00 0.00 0.00 83 1014.7
20260903041347 66 216 0.0 0.0 0.00 0.00 0.00 82 1014.9
20260903040842 66 207 0.0 1.0 0.00 0.00 0.00 82 1014.8
20260903040341 66 185 1.0 1.0 0.00 0.00 0.00 82 1014.5
20260903035837 67 206 0.0 1.0 0.00 0.00 0.00 81 1014.8
20260903035332 67 208 0.0 1.0 0.00 0.00 0.00 81 1014.6
20260903034827 67 206 0.0 1.0 0.00 0.00 0.00 80 1014.7
20260903034323 67 127 2.0 3.0 0.00 0.00 0.00 80 1014.8
20260903033818 67 196 0.0 2.0 0.00 0.00 0.00 80 1014.6
20260903033313 67 214 0.0 1.0 0.00 0.00 0.00 80 1014.8
20260903032807 67 183 0.0 0.0 0.00 0.00 0.00 80 1014.8
20260903032305 67 196 0.0 0.0 0.00 0.00 0.00 80 1014.9
20260903031758 67 200 0.0 1.0 0.00 0.00 0.00 81 1014.7
20260903031257 67 197 0.0 1.0 0.00 0.00 0.00 81 1014.8
20260903030754 67 198 0.0 0.0 0.00 0.00 0.00 81 1014.8
20260903030249 67 203 0.0 0.0 0.00 0.00 0.00 81 1014.9
20260903025744 67 213 0.0 0.0 0.00 0.00 0.00 81 1014.9
20260903025240 67 210 0.0 0.0 0.00 0.00 0.00 80 1014.7
20260903024735 67 204 0.0 0.0 0.00 0.00 0.00 80 1014.8
20260903024234 68 211 0.0 0.0 0.00 0.00 0.00 79 1014.7
20260903023730 68 197 0.0 0.0 0.00 0.00 0.00 78 1014.5
20260903023225 68 173 0.0 0.0 0.00 0.00 0.00 78 1014.7
20260903022725 68 210 0.0 1.0 0.00 0.00 0.00 78 1014.4
20260903022224 69 219 0.0 1.0 0.00 0.00 0.00 77 1014.6
20260903021719 69 208 0.0 3.0 0.00 0.00 0.00 77 1014.5
20260903021214 69 333 0.0 1.0 0.00 0.00 0.00 76 1014.5
20260903020714 69 248 1.0 2.0 0.00 0.00 0.00 75 1014.5
20260903020209 69 189 1.0 1.0 0.00 0.00 0.00 75 1014.5
20260903015704 69 206 0.0 0.0 0.00 0.00 0.00 74 1014.4
20260903015159 70 219 0.0 1.0 0.00 0.00 0.00 73 1014.5
20260903014654 69 219 0.0 0.0 0.00 0.00 0.00 74 1014.4
20260903014154 69 210 0.0 0.0 0.00 0.00 0.00 74 1014.5
20260903013649 70 212 0.0 0.0 0.00 0.00 0.00 73 1014.4
20260903013148 70 208 0.0 0.0 0.00 0.00 0.00 73 1014.2
20260903012647 70 213 0.0 0.0 0.00 0.00 0.00 73 1014.4
20260903012147 70 211 0.0 0.0 0.00 0.00 0.00 72 1014.0
20260903011647 71 211 0.0 0.0 0.00 0.00 0.00 72 1014.3
20260903011146 71 212 0.0 0.0 0.00 0.00 0.00 72 1014.2
20260903010642 72 213 0.0 0.0 0.00 0.00 0.00 71 1014.4
20260903010140 72 210 0.0 0.0 0.00 0.00 0.00 70 1014.3
20260903005635 73 213 0.0 0.0 0.00 0.00 0.00 68 1014.4
20260903005130 73 223 0.0 1.0 0.00 0.00 0.00 68 1014.3
20260903004625 73 217 0.0 0.0 0.00 0.00 0.00 67 1014.2
20260903004120 74 211 0.0 0.0 0.00 0.00 0.00 66 1014.3
20260903003616 74 210 0.0 0.0 0.00 0.00 0.00 66 1014.4
20260903003111 74 174 0.0 1.0 0.00 0.00 0.00 65 1014.4
20260903002606 74 214 0.0 0.0 0.00 0.00 0.00 67 1014.1
20260903002106 74 101 1.0 1.0 0.00 0.00 0.00 66 1014.4
20260903001601 75 208 0.0 0.0 0.00 0.00 0.00 66 1014.4
20260903001055 75 209 0.0 0.0 0.00 0.00 0.00 65 1014.2
20260903000550 75 210 0.0 1.0 0.00 0.00 0.00 63 1014.3
20260903000044 76 215 0.0 0.0 0.00 0.00 0.00 63 1014.3
20260902235543 77 87 0.0 1.0 0.00 0.00 0.00 61 1014.3
20260902235039 78 205 0.0 0.0 0.00 0.00 0.00 60 1014.1
20260902234538 78 192 1.0 1.0 0.00 0.00 0.00 59 1014.4
20260902234037 78 206 0.0 1.0 0.00 0.00 0.00 60 1014.5
20260902233532 79 216 0.0 1.0 0.00 0.00 0.00 60 1014.2
20260902233027 78 210 0.0 1.0 0.00 0.00 0.00 60 1014.2
20260902232526 78 198 0.0 1.0 0.00 0.00 0.00 60 1014.3
20260902232026 79 202 0.0 1.0 0.00 0.00 0.00 60 1014.2
20260902231521 79 124 0.0 2.0 0.00 0.00 0.00 58 1014.2
20260902231015 78 218 1.0 1.0 0.00 0.00 0.00 57 1014.1
20260902230515 78 192 1.0 2.0 0.00 0.00 0.00 58 1014.1
20260902230009 78 177 2.0 2.0 0.00 0.00 0.00 58 1014.1
20260902225504 77 180 1.0 2.0 0.00 0.00 0.00 59 1014.3
20260902225004 76 214 0.0 1.0 0.00 0.00 0.00 61 1014.1
20260902224502 76 196 2.0 2.0 0.00 0.00 0.00 62 1014.2
20260902223954 76 203 0.0 0.0 0.00 0.00 0.00 63 1014.3
20260902223448 76 208 0.0 0.0 0.00 0.00 0.00 63 1014.1
20260902222948 76 190 0.0 1.0 0.00 0.00 0.00 63 1014.4
20260902222441 76 190 0.0 1.0 0.00 0.00 0.00 63 1014.2
20260902221941 76 197 0.0 2.0 0.00 0.00 0.00 63 1014.5
20260902221439 76 201 1.0 2.0 0.00 0.00 0.00 63 1014.0
20260902220936 77 200 0.0 0.0 0.00 0.00 0.00 63 1014.2
20260902220435 77 191 1.0 2.0 0.00 0.00 0.00 62 1014.2
20260902215930 78 209 0.0 2.0 0.00 0.00 0.00 60 1014.2
20260902215426 78 119 2.0 2.0 0.00 0.00 0.00 60 1014.2
20260902214922 77 352 1.0 3.0 0.00 0.00 0.00 61 1014.4
20260902214420 76 191 1.0 1.0 0.00 0.00 0.00 62 1014.4
20260902213915 76 209 0.0 1.0 0.00 0.00 0.00 63 1014.1
20260902213412 76 206 0.0 1.0 0.00 0.00 0.00 63 1014.3
20260902212910 76 162 0.0 1.0 0.00 0.00 0.00 63 1014.5
20260902212406 76 211 0.0 1.0 0.00 0.00 0.00 63 1014.5
20260902211902 76 175 2.0 2.0 0.00 0.00 0.00 63 1014.3
20260902211358 77 220 0.0 1.0 0.00 0.00 0.00 64 1014.2
20260902210853 77 214 0.0 0.0 0.00 0.00 0.00 63 1014.4
20260902210352 77 215 0.0 0.0 0.00 0.00 0.00 63 1014.5
20260902205851 77 207 1.0 1.0 0.00 0.00 0.00 63 1014.6
20260902205346 77 215 0.0 0.0 0.00 0.00 0.00 63 1014.5
20260902204842 76 209 0.0 1.0 0.00 0.00 0.00 63 1014.6
20260902204336 76 204 1.0 1.0 0.00 0.00 0.00 63 1014.4
20260902203832 76 181 2.0 2.0 0.00 0.00 0.00 63 1014.5
20260902203327 77 208 0.0 1.0 0.00 0.00 0.00 63 1014.5
20260902202826 77 252 1.0 2.0 0.00 0.00 0.00 63 1014.6
20260902202322 77 234 1.0 3.0 0.00 0.00 0.00 62 1014.7
20260902201818 76 75 1.0 3.0 0.00 0.00 0.00 63 1014.7
20260902201313 75 28 3.0 5.0 0.00 0.00 0.00 64 1015.0
20260902200808 76 46 2.0 3.0 0.00 0.00 0.00 63 1014.9
20260902200303 76 214 0.0 2.0 0.00 0.00 0.00 63 1014.9
20260902195758 76 210 1.0 2.0 0.00 0.00 0.00 64 1014.8
20260902195257 76 217 0.0 1.0 0.00 0.00 0.00 63 1014.9
20260902194752 76 253 1.0 1.0 0.00 0.00 0.00 64 1014.9
20260902194247 75 218 0.0 2.0 0.00 0.00 0.00 65 1015.0
20260902193743 75 215 0.0 1.0 0.00 0.00 0.00 65 1014.9
20260902193238 75 197 0.0 2.0 0.00 0.00 0.00 65 1015.1
20260902192736 77 211 1.0 2.0 0.00 0.00 0.00 63 1015.1
20260902192236 77 339 3.0 5.0 0.00 0.00 0.00 62 1015.1
20260902191730 76 220 0.0 1.0 0.00 0.00 0.00 62 1014.9
20260902191225 76 213 0.0 0.0 0.00 0.00 0.00 64 1015.2
20260902190721 75 124 1.0 2.0 0.00 0.00 0.00 64 1015.1
20260902190220 75 202 0.0 0.0 0.00 0.00 0.00 67 1015.5
20260902185716 75 201 0.0 1.0 0.00 0.00 0.00 67 1015.1
20260902185212 75 208 0.0 2.0 0.00 0.00 0.00 66 1015.3
20260902184707 75 224 0.0 0.0 0.00 0.00 0.00 66 1015.2
20260902184202 76 219 0.0 2.0 0.00 0.00 0.00 65 1015.5
20260902183658 76 219 0.0 2.0 0.00 0.00 0.00 65 1015.3
20260902183154 77 206 0.0 1.0 0.00 0.00 0.00 63 1015.3
20260902182650 76 19 3.0 6.0 0.00 0.00 0.00 63 1015.2
20260902182147 76 294 1.0 1.0 0.00 0.00 0.00 63 1015.4
20260902181642 76 179 1.0 1.0 0.00 0.00 0.00 65 1015.3
20260902181142 75 201 0.0 0.0 0.00 0.00 0.00 66 1015.5
20260902180642 74 284 0.0 2.0 0.00 0.00 0.00 66 1015.4
20260902180138 73 214 0.0 0.0 0.00 0.00 0.00 68 1015.6
20260902175637 73 214 0.0 1.0 0.00 0.00 0.00 68 1015.8
20260902175133 73 220 0.0 0.0 0.00 0.00 0.00 68 1015.6
20260902174629 73 208 0.0 0.0 0.00 0.00 0.00 68 1015.7
20260902174125 74 214 0.0 0.0 0.00 0.00 0.00 69 1015.8
20260902173620 74 181 1.0 2.0 0.00 0.00 0.00 68 1015.6
20260902173115 74 56 1.0 2.0 0.00 0.00 0.00 69 1015.7
20260902172609 74 226 0.0 3.0 0.00 0.00 0.00 68 1015.9
20260902172103 75 14 2.0 5.0 0.00 0.00 0.00 69 1015.8
20260902171559 74 208 1.0 1.0 0.00 0.00 0.00 68 1015.8
20260902171055 74 198 0.0 1.0 0.00 0.00 0.00 70 1015.8
20260902170550 73 202 1.0 2.0 0.00 0.00 0.00 70 1015.9
20260902170045 73 215 0.0 2.0 0.00 0.00 0.00 70 1015.8
20260902165539 75 197 0.0 1.0 0.00 0.00 0.00 68 1015.8
20260902165034 74 188 1.0 2.0 0.00 0.00 0.00 71 1015.8
20260902164529 72 211 0.0 0.0 0.00 0.00 0.00 73 1015.8
20260902164028 72 218 0.0 0.0 0.00 0.00 0.00 73 1015.7
20260902163524 73 216 0.0 1.0 0.00 0.00 0.00 72 1016.2
20260902163022 74 200 0.0 1.0 0.00 0.00 0.00 71 1016.2
20260902162522 73 215 0.0 1.0 0.00 0.00 0.00 72 1016.2
20260902162017 72 190 0.0 2.0 0.00 0.00 0.00 73 1016.2
20260902161512 71 110 2.0 3.0 0.00 0.00 0.00 75 1015.9
20260902161008 71 273 0.0 1.0 0.00 0.00 0.00 75 1016.1
20260902160504 71 111 2.0 3.0 0.00 0.00 0.00 76 1015.7
20260902160003 70 214 0.0 1.0 0.00 0.00 0.00 77 1015.6
20260902155456 69 248 1.0 2.0 0.00 0.00 0.00 77 1015.9
20260902154950 69 216 0.0 1.0 0.00 0.00 0.00 78 1015.9
20260902154445 69 53 1.0 2.0 0.00 0.00 0.00 79 1015.8
20260902153946 68 163 1.0 1.0 0.00 0.00 0.00 79 1015.9
20260902153444 68 85 1.0 2.0 0.00 0.00 0.00 80 1015.9
20260902152939 68 262 1.0 1.0 0.00 0.00 0.00 80 1015.8
20260902152430 68 214 0.0 1.0 0.00 0.00 0.00 80 1015.8
20260902151925 67 209 0.0 1.0 0.00 0.00 0.00 81 1015.7
20260902151421 67 27 1.0 2.0 0.00 0.00 0.00 81 1015.7
20260902150915 66 210 0.0 1.0 0.00 0.00 0.00 82 1015.8
20260902150411 66 212 0.0 0.0 0.00 0.00 0.00 83 1015.9
20260902145910 66 197 0.0 0.0 0.00 0.00 0.00 83 1015.6
20260902145406 65 211 0.0 0.0 0.00 0.00 0.00 84 1015.8
20260902144901 65 214 0.0 0.0 0.00 0.00 0.00 85 1015.9
20260902144357 65 214 0.0 0.0 0.00 0.00 0.00 86 1015.8
20260902143857 64 219 0.0 0.0 0.00 0.00 0.00 88 1015.9
20260902143352 64 216 0.0 0.0 0.00 0.00 0.00 90 1015.9
20260902142848 64 217 0.0 0.0 0.00 0.00 0.00 91 1016.1
20260902142344 63 249 0.0 0.0 0.00 0.00 0.00 92 1015.7
20260902141839 63 214 0.0 1.0 0.00 0.00 0.00 93 1015.8
20260902141334 63 227 0.0 0.0 0.00 0.00 0.00 94 1015.9
20260902140833 62 213 0.0 0.0 0.00 0.00 0.00 94 1015.6
20260902140328 62 223 0.0 1.0 0.00 0.00 0.00 95 1015.7
20260902135828 62 237 0.0 0.0 0.00 0.00 0.00 95 1015.8
20260902135324 62 237 0.0 1.0 0.00 0.00 0.00 95 1015.7
20260902134823 61 212 0.0 0.0 0.00 0.00 0.00 95 1015.8
20260902134318 61 224 0.0 0.0 0.00 0.00 0.00 96 1015.9
20260902133813 61 270 0.0 0.0 0.00 0.00 0.00 96 1015.8
20260902133308 60 220 0.0 0.0 0.00 0.00 0.00 96 1015.8
20260902132803 60 223 0.0 0.0 0.00 0.00 0.00 96 1015.8
20260902132258 59 211 0.0 0.0 0.00 0.00 0.00 96 1015.8
20260902131754 59 211 0.0 0.0 0.00 0.00 0.00 96 1015.7
20260902131250 59 211 0.0 0.0 0.00 0.00 0.00 96 1015.8
20260902130750 58 211 0.0 0.0 0.00 0.00 0.00 96 1015.4
20260902130246 58 211 0.0 0.0 0.00 0.00 0.00 96 1015.5
20260902125740 58 211 0.0 0.0 0.00 0.00 0.00 96 1015.8
20260902125236 57 211 0.0 0.0 0.00 0.00 0.00 96 1015.6
20260902124733 57 211 0.0 0.0 0.00 0.00 0.00 96 1015.7
20260902124228 57 215 0.0 0.0 0.00 0.00 0.00 96 1015.6
20260902123723 57 215 0.0 0.0 0.00 0.00 0.00 96 1015.6
20260902123219 57 215 0.0 0.0 0.00 0.00 0.00 96 1015.5
20260902122718 57 216 0.0 0.0 0.00 0.00 0.00 96 1015.4
20260902122213 57 212 0.0 0.0 0.00 0.00 0.00 95 1015.6
20260902121708 57 211 0.0 0.0 0.00 0.00 0.00 95 1015.6
20260902121203 57 210 0.0 0.0 0.00 0.00 0.00 95 1015.6
20260902120659 57 213 0.0 0.0 0.00 0.00 0.00 95 1015.5
20260902120155 57 217 0.0 0.0 0.00 0.00 0.00 95 1015.5
20260902115654 57 213 0.0 0.0 0.00 0.00 0.00 95 1015.6
20260902115151 57 213 0.0 0.0 0.00 0.00 0.00 95 1015.6
20260902114647 58 212 0.0 0.0 0.00 0.00 0.00 95 1015.3
20260902114142 58 215 0.0 0.0 0.00 0.00 0.00 95 1015.4
20260902113637 58 221 0.0 0.0 0.00 0.00 0.00 95 1015.3
20260902113132 58 217 0.0 0.0 0.00 0.00 0.00 95 1015.4
20260902112627 57 222 0.0 0.0 0.00 0.00 0.00 95 1015.4
20260902112124 57 214 0.0 0.0 0.00 0.00 0.00 95 1015.5
20260902111619 57 215 0.0 0.0 0.00 0.00 0.00 95 1015.4
20260902111115 57 212 0.0 0.0 0.00 0.00 0.00 95 1015.2
20260902110605 57 217 0.0 0.0 0.00 0.00 0.00 95 1015.2
20260902110101 57 214 0.0 0.0 0.00 0.00 0.00 95 1015.2
20260902105555 57 216 0.0 0.0 0.00 0.00 0.00 95 1015.1
20260902105054 57 215 0.0 0.0 0.00 0.00 0.00 95 1015.4
20260902104550 57 215 0.0 0.0 0.00 0.00 0.00 95 1015.2
20260902104045 58 216 0.0 0.0 0.00 0.00 0.00 95 1015.2
20260902103540 58 217 0.0 0.0 0.00 0.00 0.00 95 1015.2
20260902103036 58 219 0.0 0.0 0.00 0.00 0.00 95 1015.3
20260902102532 57 212 0.0 0.0 0.00 0.00 0.00 95 1015.2
20260902102029 57 221 0.0 0.0 0.00 0.00 0.00 95 1015.1
20260902101524 57 215 0.0 0.0 0.00 0.00 0.00 95 1015.3
20260902101023 57 225 0.0 0.0 0.00 0.00 0.00 95 1015.1
20260902100518 58 215 0.0 0.0 0.00 0.00 0.00 94 1015.2
20260902100018 58 216 0.0 0.0 0.00 0.00 0.00 94 1015.2
20260902095517 58 215 0.0 0.0 0.00 0.00 0.00 94 1015.1
20260902095016 58 218 0.0 0.0 0.00 0.00 0.00 94 1015.1
20260902094512 58 215 0.0 0.0 0.00 0.00 0.00 94 1015.0
20260902094007 58 215 0.0 0.0 0.00 0.00 0.00 94 1015.0
20260902093502 58 219 0.0 0.0 0.00 0.00 0.00 94 1015.1
20260902093001 58 219 0.0 0.0 0.00 0.00 0.00 94 1015.1
20260902092457 58 216 0.0 0.0 0.00 0.00 0.00 94 1014.8
20260902091957 58 220 0.0 1.0 0.00 0.00 0.00 94 1014.9
20260902091452 58 221 0.0 0.0 0.00 0.00 0.00 94 1015.0
20260902090948 58 214 0.0 0.0 0.00 0.00 0.00 94 1015.1
20260902090444 59 213 0.0 0.0 0.00 0.00 0.00 94 1015.1
20260902085942 59 219 0.0 0.0 0.00 0.00 0.00 94 1015.1
20260902085437 59 214 0.0 0.0 0.00 0.00 0.00 94 1015.0
20260902084932 59 222 0.0 1.0 0.00 0.00 0.00 94 1015.0
20260902084429 59 252 0.0 1.0 0.00 0.00 0.00 94 1014.9
20260902083919 59 244 0.0 0.0 0.00 0.00 0.00 94 1015.0
20260902083419 59 217 0.0 1.0 0.00 0.00 0.00 94 1015.2
20260902082919 59 222 0.0 0.0 0.00 0.00 0.00 94 1015.2
20260902082414 59 218 0.0 0.0 0.00 0.00 0.00 94 1014.9